Weather History for Kansas City International, MO

Change the Weather History Date:

Monday, December 16, 2013

  Actual Average Record
Temperature  
Mean Temperature 41 °F 31 °F  
Max Temperature 59 °F 40 °F 67 °F (1933)
Min Temperature 23 °F 22 °F -14 °F (1989)
Degree Days  
Heating Degree Days 24 34  
Month to date heating degree days 605 509  
Since 1 July heating degree days 1670 1511  
Cooling Degree Days 0 0  
Month to date cooling degree days 0 0  
Year to date cooling degree days 1345 1360  
Moisture  
Dew Point 28 °F    
Average Humidity 64    
Maximum Humidity 92    
Minimum Humidity 36    
Precipitation  
Precipitation 0.00 in 0.05 in 0.55 in (1928)
Month to date precipitation 0.32 0.90  
Year to date precipitation 34.00 38.23  
Snow  
Snow 0.00 in 0.20 in 4.20 in (1981)
Month to date snowfall 2.0 2.3  
Since 1 July snowfall 2.0 3.7  
Snow Depth 0.00 in    
Sea Level Pressure  
Sea Level Pressure 30.06 in    
Wind  
Wind Speed 7 mph (NW)    
Max Wind Speed 21 mph    
Max Gust Speed 23 mph    
Visibility 9 miles    
Events      
T = Trace of Precipitation, MM = Missing Value Source: NWS Daily Summary

Daily Weather History Graph

Daily Weather History Graph

Search for Another Location

Airport:

Trip Planner

Search our weather history database for the weather conditions in past years. The results will help you decide how hot, cold, wet, or windy it might be!

Date:

Astronomy

Dec. 16, 2013 Rise Set
Actual Time 7:32 AM CST 4:57 PM CST
Civil Twilight 7:02 AM CST 5:27 PM CST
Nautical Twilight 6:28 AM CST 6:00 PM CST
Astronomical Twilight 5:55 AM CST 6:33 PM CST
Moon 4:47 PM CST (12/16) 6:41 AM CST (12/16)
Length of Visible Light 10h 25m
Length of Day
9h 24m
Full, 100% of the Moon is Illuminated
Dec 16
Full
Dec 17
Full
Dec 25
Last Quarter
Jan 1
New
Jan 7
First Quarter

Hourly Weather History & Observations

Time (CST) Temp. Windchill Dew Point Humidity Pressure Visibility Wind Dir Wind Speed Gust Speed Precip Events Conditions
12:53 AM 37.0 °F 30.4 °F 25.0 °F 62% 29.96 in 10.0 mi WSW 9.2 mph - N/A   Partly Cloudy
1:53 AM 37.0 °F 32.4 °F 25.0 °F 62% 29.98 in 10.0 mi West 5.8 mph - N/A   Clear
2:53 AM 34.0 °F 29.8 °F 25.0 °F 70% 30.00 in 10.0 mi WSW 4.6 mph - N/A   Clear
3:53 AM 36.0 °F 31.1 °F 25.0 °F 64% 30.01 in 10.0 mi NW 5.8 mph - N/A   Clear
4:53 AM 27.0 °F 20.5 °F 24.1 °F 89% 30.01 in 6.0 mi NNE 5.8 mph - N/A   Scattered Clouds
5:53 AM 27.0 °F - 25.0 °F 92% 30.02 in 5.0 mi Calm Calm - N/A   Partly Cloudy
6:53 AM 27.0 °F - 25.0 °F 92% 30.03 in 5.0 mi Calm Calm - N/A   Partly Cloudy
7:53 AM 25.0 °F 19.3 °F 23.0 °F 92% 30.04 in 5.0 mi ENE 4.6 mph - N/A   Partly Cloudy
8:53 AM 30.0 °F 26.5 °F 27.0 °F 88% 30.06 in 7.0 mi NE 3.5 mph - N/A   Partly Cloudy
9:53 AM 36.0 °F 32.1 °F 28.9 °F 76% 30.06 in 10.0 mi South 4.6 mph - N/A   Partly Cloudy
10:53 AM 43.0 °F 38.2 °F 28.9 °F 58% 30.04 in 10.0 mi SSW 8.1 mph - N/A   Partly Cloudy
11:53 AM 48.0 °F - 30.9 °F 52% 30.02 in 10.0 mi SSW 8.1 mph - N/A   Partly Cloudy
12:53 PM 52.0 °F - 30.9 °F 45% 30.00 in 10.0 mi SW 13.8 mph - N/A   Scattered Clouds
1:53 PM 55.0 °F - 30.9 °F 40% 29.97 in 10.0 mi SW 10.4 mph - N/A   Mostly Cloudy
2:53 PM 57.0 °F - 30.9 °F 37% 29.99 in 10.0 mi NW 11.5 mph - N/A   Mostly Cloudy
3:53 PM 45.0 °F 39.7 °F 32.0 °F 60% 30.05 in 10.0 mi NNE 10.4 mph - N/A   Scattered Clouds
4:53 PM 39.0 °F 32.8 °F 30.9 °F 73% 30.08 in 10.0 mi North 9.2 mph - N/A   Mostly Cloudy
5:53 PM 42.1 °F 35.7 °F 28.9 °F 60% 30.11 in 10.0 mi North 11.5 mph - N/A   Scattered Clouds
6:53 PM 37.9 °F 33.5 °F 28.0 °F 68% 30.13 in 10.0 mi NNW 5.8 mph - N/A   Partly Cloudy
7:53 PM 39.0 °F 35.7 °F 28.0 °F 65% 30.15 in 10.0 mi NW 4.6 mph - N/A   Mostly Cloudy
8:53 PM 37.9 °F 34.4 °F 28.0 °F 68% 30.16 in 10.0 mi NNW 4.6 mph - N/A   Partly Cloudy
9:53 PM 35.1 °F 30.1 °F 28.0 °F 76% 30.16 in 10.0 mi NNW 5.8 mph - N/A   Mostly Cloudy
10:53 PM 33.1 °F 28.7 °F 26.1 °F 75% 30.16 in 10.0 mi North 4.6 mph - N/A   Mostly Cloudy
11:53 PM 33.1 °F 27.7 °F 26.1 °F 75% 30.17 in 10.0 mi North 5.8 mph - N/A   Overcast